Location: Saratoga Springs
(43.0831°N, 73.7850°W)
Time: 07:44:35
(UTC-04:00)

Vanguard 2 Rocket - Pass Details

Date: 21 April 2024
Orbit: 556 x 3304 km, 32.9° (Epoch: 22 May)

Event Time Altitude Azimuth Distance (km) Brightness Sun altitude
Rises 00:01:53 0° 255° (WSW) 6,580 11.3 -33.6°
Reaches altitude 10° 00:05:56 10° 252° (WSW) 5,806 10.9 -33.8°
Maximum altitude 00:24:44 62° 179° (S) 3,578 9.4 -34.5°
Drops below altitude 10° 00:42:42 10° 105° (ESE) 5,585 10.7 -34.8°
Sets 00:46:30 0° 102° (ESE) 6,328 11.1 -34.9°
